www.pogodaiklimat.ru

Погода и климат >> Архив погоды >> Россия >> Дагестан >> Изберг


ПОГОДА в Изберге

  • Прогноз погоды в Изберге
  • Монитор погоды в Изберге

АРХИВ ПОГОДЫ в Изберге

Время (UTC), дата Ветер
(напр.,м/с)
 
Видим.   Явления Облачность Т
(С)
Тd
(С)
f
(%)
Тe
(С)
Тes
(С)
Комфортность P
(гПа)
Po
(гПа)
Тmin
(С)
Tmax
(С)
R
(мм)
R24
(мм)
S
(см)
18 14.07 Ю 3 20 км 8/0
[Ci]
+19.4 +15.0 76 +21 +21 комфорт 1011.3 1013.4
21 14.07 ЮЗ 3 20 км 4/0
[Ci fib]
+17.2 +13.6 79 +17 +17 1010.0 1012.1
00 15.07 ЮЗ 2 20 км 4/1 600 м
[Cu hum Ci]
+16.9 +13.6 81 +17 +17 1008.7 1010.8
03 15.07 ЮВ 2 50 км 8/0
[Ac lent Ci]
+20.0 +14.3 70 +23 +24 комфорт 1008.5 1010.6 +16.5
06 15.07 ЮВ 9-12
{12}
20 км 8/4 600 м
[Cu med, cong Ac trans]
+22.5 +17.1 72 +27 +28 душно 1007.9 1009.9
09 15.07 ЮВ 10-13
{13}
20 км 6/3 600 м
[Cu hum Ac cast Cs]
+24.2 +17.5 66 +28 +29 душно 1006.1 1008.2
12 15.07 ЮВ 10-13
{16}
20 км 8/5 600 м
[Cb calv Ac trans Ci fib]
+22.9 +18.0 74 +28 +29 душно 1005.0 1007.1
15 15.07 ЮВ 9-11
{13}
20 км 9/3 600 м
[Cu hum Ac trans Cs]
+23.0 +17.7 72 +28 +28 душно 1003.6 1005.7 +24.3
18 15.07 Ю 3
{11}
20 км 9/8 600 м
[Cu hum Ac trans]
+22.2 +17.4 74 +27 +27 душно 1004.1 1006.2
21 15.07 Ю 2 20 км 10/10 600 м
[Cu hum]
+22.0 +17.9 78 +27 +27 душно 1003.3 1005.4
00 16.07 СЗ 3 20 км 10/10 600 м
[Cu hum]
+22.0 +17.7 77 +27 +27 душно 1003.7 1005.8
03 16.07 СЗ 3 20 км 10/10 600 м
[Cb calv]
+22.1 +18.3 79 +27 +27 душно 1004.4 1006.5 +21.6
06 16.07 СВ 2 20 км 6/1 600 м
[Cu hum Ac cast Cs]
+24.5 +18.8 71 +29 +38 душно 1003.9 1006.0
09 16.07 СВ 3 20 км ясно +25.2 +18.8 68 +30 +46 душно 1004.2 1006.2
12 16.07 В 2 20 км 3/3 600 м
[Cu med, cong]
+25.6 +19.3 68 +31 +39 очень
душно
1003.7 1005.7
15 16.07 В 1 20 км ясно +25.4 +18.1 64 +30 +31 душно 1003.7 1005.7 +25.9
18 16.07 З 2 20 км ясно +24.5 +18.0 67 +29 +29 душно 1004.8 1006.8
21 16.07 СВ 1 20 км ясно +24.0 +18.4 71 +28 +28 душно 1005.0 1007.0
00 17.07 З 3 20 км 3/0
[Ac trans]
+24.9 +18.3 67 +29 +29 душно 1006.1 1008.2
03 17.07 СЗ 5 20 км ясно +25.2 +18.2 65 +30 +31 душно 1006.9 1009.0 +24.0
06 17.07 СЗ 9-15
{15}
20 км 1/1 600 м
[Cu hum]
+26.6 +16.5 54 +30 +31 душно 1007.7 1009.8
09 17.07 С 9-12
{15}
50 км 3/1 600 м
[Cu hum Ci fib]
+27.1 +16.7 53 +31 +32 душно 1007.2 1009.2
12 17.07 С 6
{13}
50 км 3/1 600 м
[Cu hum Ac trans Ci fib]
+28.6 +17.2 50 +33 +36 очень
душно
1006.7 1008.7
15 17.07 С 2 20 км 3/3 600 м
[Cu hum]
+26.5 +17.9 59 +31 +32 душно 1006.7 1008.7 +28.7
18 17.07 ЮЗ 1 20 км ясно +24.3 +16.8 63 +28 +28 душно 1006.8 1008.9
21 17.07 ЮЗ 3 20 км ясно +24.0 +15.4 59 +27 +27 жарко 1006.1 1008.2
00 18.07 ЮЗ 1 20 км ясно +22.2 +15.2 65 +26 +26 душно 1005.8 1007.9
03 18.07 ЮЗ 2 50 км ясно +24.1 +16.1 61 +27 +29 жарко 1006.4 1008.4 +21.2
06 18.07 С 5 50 км ясно +28.2 +16.6 49 +32 +38 душно 1005.9 1007.9
09 18.07 С 3 50 км ясно +27.2 +20.0 65 +33 +49 очень
душно
1005.2 1007.3
12 18.07 С 4 50 км ясно +27.6 +19.7 62 +33 +41 очень
душно
1004.4 1006.4
15 18.07 С 3 20 км 8/0
[Cs]
+27.3 +18.7 59 +32 +33 очень
душно
1004.9 1006.9 +28.7
18 18.07 СЗ 3 20 км 9/0
[Cs]
+25.0 +20.6 77 +31 +31 очень
душно
1006.6 1008.7
21 18.07 СВ 1 20 км ясно +24.1 +17.9 68 +28 +28 душно 1007.2 1009.3
00 19.07 З 1 20 км ясно +23.3 +14.7 58 +27 +27 душно 1007.9 1010.0
03 19.07 С 3 50 км 1/0
[Ac cast]
+26.8 +14.6 47 +29 +31 жарко 1008.9 1011.0 +23.3
06 19.07 С 6 20 км 8/0
[Cs]
+29.0 +18.7 54 +34 +38 очень
душно
1009.7 1011.7
09 19.07 С 8-11
{13}
20 км ясно +30.6 +16.1 42 +34 +37 очень
душно
1010.6 1012.6
12 19.07 С 4
{11}
20 км ясно +29.5 +17.7 49 +34 +41 очень
душно
1010.7 1012.7
15 19.07 С 2 20 км 4/0
[Ac lent Ci fib]
+29.1 +11.4 33 +30 +30 жарко 1011.2 1013.2 +31.3
18 19.07 ЮЗ 2 20 км ясно +26.0 +10.8 39 +27 +27 жарко 1012.3 1014.4
21 19.07 СЗ 2 20 км 8/0
[Ac lent Ci fib]
+24.9 +13.8 50 +27 +27 жарко 1012.9 1015.0
00 20.07 ЮЗ 1 20 км 6/0
[Ac lent Ci fib]
+25.2 +14.7 52 +28 +28 жарко 1013.4 1015.4
03 20.07 СЗ 5 20 км 9/0
[Ac und]
+25.5 +17.7 62 +30 +30 душно 1015.3 1017.3 +24.5
06 20.07 С 6-10
{12}
20 км 9/0
[Ac und]
+27.1 +18.1 58 +32 +34 очень
душно
1016.2 1018.2
09 20.07 С 6
{11}
20 км 10/1 600 м
[Cu hum Ac und]
+27.6 +18.7 58 +33 +35 очень
душно
1016.2 1018.3
12 20.07 С 4 20 км 4/1 600 м
[Cu hum Ac trans Ci sp]
+27.6 +19.5 61 +33 +39 очень
душно
1016.1 1018.1
15 20.07 С 3 20 км 1/1 600 м
[Cu hum]
+26.5 +19.5 65 +32 +33 очень
душно
1016.1 1018.2 +28.7
18 20.07 С 1 20 км ясно +25.4 +18.7 66 +30 +30 душно 1016.6 1018.7
21 20.07 ЮЗ 3 20 км ясно +22.9 +16.5 67 +28 +28 душно 1016.3 1018.4
00 21.07 ЮЗ 3 20 км ясно +22.5 +16.2 68 +27 +27 душно 1016.0 1018.1
03 21.07 ЮЗ 3 50 км 1/1 600 м
[Cu hum]
+25.1 +16.1 57 +28 +30 жарко 1016.1 1018.2 +22.0
06 21.07 В 6 50 км 8/1 600 м
[Cu hum Ac trans Ci sp]
+26.8 +20.3 68 +33 +36 очень
душно
1015.7 1017.7
09 21.07 В 7 50 км 9/0
[Cc]
+27.3 +19.4 62 +33 +37 очень
душно
1014.0 1016.1
12 21.07 ЮВ 3 50 км 9/1 600 м
[Cu med, cong Ci]
+27.8 +20.6 65 +35 +41 очень
душно
1012.5 1014.6
15 21.07 В 4 50 км 8/3 600 м
[Cu med, cong Ac trans Cs]
+26.4 +20.6 70 +33 +33 очень
душно
1011.3 1013.4 +28.8

 

Местоположение метеостанции Изберг (Дагестан, Россия): широта 42.53 долгота 47.92 высота над уровнем моря -16 м.

В архиве по умолчанию представлена погода в Изберге за последнюю неделю. Архивные данные за месяц целиком и за предыдущие месяцы, начиная с января 2011 года, Вы можете получить, выбрав интересующий диапазон дат из раскрывающегося списка и нажав кнопку "Ввод!".


*Определитесь, кто Вы:
робот инопланетянин человек

Внимание! Время в таблицах - всемирное. Для получения местного времени необходимо прибавить поправку, которая равна 3 ч.

Смотрите также архив погоды в соседних городах и на ближайших метеорологических станциях:

Погода в Сергокале (Дагестан, Россия) (22 км)
Погода в Дербенте (Дагестан, Россия) (60 км)
Погода в Махачкале (Дагестан, Россия) (65 км)
Погода в Куппе (Дагестан, Россия) (68 км)
Погода в Буйнакске (Дагестан, Россия) (73 км)
Погода в Гунибе (Дагестан, Россия) (79 км)
Погода в Кумухе (Дагестан, Россия) (80 км)
Погода в Касумкенте (Дагестан, Россия) (98 км)
Погода в Хунзахе (Дагестан, Россия) (100 км)
Погода в Ахты (Дагестан, Россия) (119 км)

Пояснения к столбцам:

Ветер - указаны скорость ветра в м/с - средняя за 10 мин, порывы в срок и между сроками (в фигурных скобках) и направление, откуда дует ветер: С - северный, СВ - северо-восточный, В - восточный, ЮВ - юго-восточный, Ю - южный, ЮЗ - юго-западный, З - западный, СЗ - северо-западный.
Видимость - горизонтальная дальность видимости в метрах или километрах. При видимости от 1 до 10 км при отсутствии осадков обычно наблюдается дымка, при ухудшении видимости до 1 км и менее - туман. В сухую погоду видимость может ухудшаться дымом, пылью или мглою.
Явления - указаны атмосферные явления, наблюдавшиеся в срок или в последний час перед сроком; фигурными скобками обозначены явления, наблюдавшиеся между сроками (за 1-3 часа до срока); квадратными скобками обозначены град или гололедные отложения с указанием их диаметра в мм.
Облачность - указаны через наклонную черту общая и нижняя облачность в баллах и высота нижней границы облаков в метрах; квадратными скобками обозначены формы облаков: Ci - перистые, Cs - перисто-слоистые, Cc - перисто-кучевые, Ac - высококучевые, As - высокослоистые, Sc - слоисто-кучевые, Ns - слоисто-дождевые, Cu - кучевые, Cb - кучево-дождевые. Подробнее классификацию облаков см. в Атласе облаков (PDF).
T - Температура воздуха - температура, измеренная на высоте 2 м над землей.
Td - Температура точки росы - температура, при понижении до которой содержащийся в воздухе водяной пар достигнет насыщения.
f - Относительная влажность воздуха - влажноcть воздуха, измеренная на высоте 2 м над землей.
Te - Эффективная температура - температура, которую ощущает одетый по сезону человек в тени. Характеристика душности погоды. При расчете учитывается влияние влажности воздуха и скорости ветра на теплоощущения человека.
Tes - Эффективная температура на солнце - температура, которую ощущает человек, с поправкой на солнечный нагрев. Характеристика знойности погоды. Зависит от высоты солнца над горизонтом, облачности и скорости ветра. Ночью, в пасмурную погоду, а также при ветре 12 м/с и более поправка равна нулю.
P - Атмосферное давление - приведенное к уровню моря атмосферное давление.
Po - Атмосферное давление - измеренное на уровне метеостанции атмосферное давление.
Tmin - Минимальная температура - минимум температуры воздуха на высоте 2 м над землей.
Tmax - Максимальная температура - максимум температуры воздуха на высоте 2 м над землей.
R - Количество осадков - Количество выпавших осадков за период времени, мм. При наведении курсора мыши на число - период времени, за который выпало указанное количество осадков.
R24 - Количество осадков - Количество выпавших осадков за 24 часа, мм.
S - Снежный покров - Высота снежного покрова, см. При наведении курсора мыши на число - состояние снежного покрова и степень покрытия местности в баллах.